Now boarding.
Please wait.

menu

our worldwide Hubs

Our Hubs

GlobalOne creates a global network with its airline members connecting the globe. Our hubs are strategically placed to form a network of maximum connectivity and enabling our pilots to fly any part of the world. Spanning all the way from Europe to Asia & South America, GlobalOne has the most comprehensive Virtual Airline network, distinguishing us from the rest.

NZAA Auckland International Airport

Airport Information METAR Runway Information

Current Weather:

NZAA 230100Z AUTO 23013KT 9999 OVC032/// 23/17 Q1013 NOSIG

Runway Facts:

Direction Length m Length ft Elevation m Elevation ft Surface
05R/23L 3,535 11,926 7 m 23 ft Concrete

EBBR Brussels International Airport

Airport Information METAR Runway Information

Current Weather:

EBBR 230050Z 13004KT 100V160 9000 SCT009 BKN041 M01/M02 Q0997 NOSIG

Runway Facts:

Direction Length m Length ft Elevation m Elevation ft Surface
01/19 2,987 9,800 56 m 184 ft Asphalt
07R/25L 3,211 10,535 56 m 184 ft Asphalt
07L/25R 3,638 11,936 56 m 184 ft Asphalt

LEBL Barcelona El-Prat

Airport Information METAR Runway Information

Current Weather:

LEBL 230100Z 32010KT 9999 FEW030 05/01 Q1004 NOSIG

Runway Facts:

Direction Length m Length ft Elevation m Elevation ft Surface
07L/25R 3,743 12,281 4 m 14 ft Asphalt concrete
07R/25L 2,660 8,727 4 m 14 ft Asphalt concrete
02/20 2,528 8,293 4 m 14 ft Asphalt concrete

SVMI Caracas Simón Bolívar International Airport

Airport Information METAR Runway Information

Current Weather:

SVMI 230105Z 00000KT 9999 FEW016 25/20 Q1014

Runway Facts:

Direction Length m Length ft Elevation m Elevation ft Surface
10/28 3,610 11,483 72 m 235 ft Asphalt
09/27 3,270 9,930 72 m 235 ft Asphalt

LEMD Madrid Barajas

Airport Information METAR Runway Information

Current Weather:

LEMD 230100Z 25012KT 220V280 9999 SCT060 07/02 Q1010 NOSIG

Runway Facts:

Direction Length m Length ft Elevation m Elevation ft Surface
14R/32L 4,100 13,451 610 m 2,000 ft Asphalt
18L/36R 3,500 11,482 610 m 2,000 ft Asphalt
14L/32R 3,500 11,482 610 m 2,000 ft Asphalt
18R/36L 4,350 14,268 610 m 2,000 ft Asphalt/Concrete

LEMG Malaga

Airport Information METAR Runway Information

Current Weather:

LEMG 230100Z 30007KT 9999 FEW030 BKN050 12/07 Q1016 NOSIG

Runway Facts:

Direction Length m Length ft Elevation m Elevation ft Surface
13/31 3,200 10,500 16 m 52 ft Asphalt
12/30 2,750 9,022 16 m 52 ft Asphalt

OJAI Queen Alia International Airport

Airport Information METAR Runway Information

Current Weather:

OJAI 230100Z 00000KT 8000 NSC 03/01 Q1017 NOSIG

Runway Facts:

Direction Length m Length ft Elevation m Elevation ft Surface
08R/26L 3,660 12,008 730 m 2,395 ft Concrete
08L/26R 3,660 12,008 730 m 2,395 ft Asphalt

KRSW Southwest Florida International Airport

Airport Information METAR Runway Information

Current Weather:

KRSW 230053Z 08009KT 10SM FEW041 18/12 A3030 RMK AO2 SLP257 T01830122

Runway Facts:

Direction Length m Length ft Elevation m Elevation ft Surface
06/24 3,658 12,000 9 m 30 ft Asphalt